Newport News, VA

3:24 AM EDT on April 30, 2017 (GMT -0400)
Newport News-Williamsburg International

Weather History for KPHF - October, 2012

Change the Weather History Date:

Wednesday, October 3, 2012

  Actual Average Record
Temperature  
Mean Temperature 78 °F -  
Max Temperature 84 °F 75 °F 89 °F (1954)
Min Temperature 73 °F 58 °F 36 °F (1974)
Cooling Degree Days 14    
Growing Degree Days 28 (Base 50)    
Moisture  
Dew Point 72 °F    
Average Humidity 82    
Maximum Humidity 94    
Minimum Humidity 65    
Precipitation  
Precipitation 0.00 in - - ()
Sea Level Pressure  
Sea Level Pressure 30.07 in    
Wind  
Wind Speed 7 mph (SSW)    
Max Wind Speed 12 mph    
Max Gust Speed -    
Visibility 9 miles    
Events Rain    
Averages and records for this station are not official NWS values.
T = Trace of Precipitation, MM = Missing Value Source: NWS Daily Summary

Daily Weather History Graph

Daily Weather History Graph

Search for Another Location

Airport or City:

Trip Planner

Search our weather history database for the weather conditions in past years. The results will help you decide how hot, cold, wet, or windy it might be!

Date:

Astronomy

Oct. 03, 2012 Rise Set
Actual Time 7:03 AM EDT 6:45 PM EDT
Civil Twilight 6:37 AM EDT 7:11 PM EDT
Nautical Twilight 6:07 AM EDT 7:41 PM EDT
Astronomical Twilight 5:37 AM EDT 8:11 PM EDT
Moon 8:42 PM EDT (10/3) 10:19 AM EDT (10/3)
Length of Visible Light 12h 33m
Length of Day
11h 42m
Waning Gibbous, 89% of the Moon is Illuminated
Oct 3
Waning Gibbous
Oct 8
Last Quarter
Oct 15
New
Oct 21
First Quarter
Oct 29
Full

Hourly Weather History & Observations

Time (EDT) Temp. Heat Index Dew Point Humidity Pressure Visibility Wind Dir Wind Speed Gust Speed Precip Events Conditions
12:54 AM 75.9 °F - 73.0 °F 91% 29.97 in 9.0 mi SSW 6.9 mph - N/A   Overcast
1:54 AM 75.9 °F - 73.0 °F 91% 29.99 in 10.0 mi SSW 8.1 mph - N/A   Overcast
2:54 AM 75.9 °F - 72.0 °F 87% 30.00 in 10.0 mi SW 10.4 mph - N/A   Overcast
3:45 AM 75.2 °F - 71.6 °F 89% 30.01 in 10.0 mi SW 11.5 mph - N/A   Overcast
3:54 AM 75.9 °F - 72.0 °F 87% 30.01 in 10.0 mi SW 10.4 mph - N/A   Overcast
4:34 AM 75.2 °F - 71.6 °F 89% 30.01 in 10.0 mi SSW 8.1 mph - N/A   Overcast
4:54 AM 75.9 °F - 72.0 °F 87% 30.02 in 10.0 mi SW 6.9 mph - N/A   Overcast
5:54 AM 75.9 °F - 72.0 °F 87% 30.04 in 10.0 mi SSW 5.8 mph - N/A   Overcast
6:54 AM 75.0 °F - 72.0 °F 90% 30.05 in 8.0 mi SW 5.8 mph - N/A   Overcast
7:20 AM 73.4 °F - 71.6 °F 94% 30.05 in 5.0 mi SSW 5.8 mph - N/A   Scattered Clouds
7:46 AM 75.2 °F - 71.6 °F 89% 30.06 in 8.0 mi SSW 5.8 mph - N/A   Partly Cloudy
7:54 AM 75.0 °F - 72.0 °F 90% 30.06 in 8.0 mi SW 5.8 mph - N/A   Scattered Clouds
8:29 AM 75.2 °F - 71.6 °F 89% 30.08 in 7.0 mi SW 10.4 mph - N/A   Mostly Cloudy
8:54 AM 75.9 °F - 72.0 °F 87% 30.08 in 7.0 mi SW 6.9 mph - N/A   Overcast
9:54 AM 78.1 °F - 73.0 °F 84% 30.10 in 9.0 mi SW 8.1 mph - N/A   Overcast
10:54 AM 80.6 °F 85.4 °F 73.4 °F 79% 30.11 in 10.0 mi WSW 4.6 mph - N/A   Mostly Cloudy
11:02 AM 80.6 °F 85.4 °F 73.4 °F 79% 30.11 in 10.0 mi WSW 4.6 mph - N/A   Scattered Clouds
11:54 AM 81.0 °F 85.2 °F 72.0 °F 74% 30.10 in 10.0 mi SW 8.1 mph - N/A   Mostly Cloudy
12:50 PM 82.4 °F 87.2 °F 71.6 °F 70% 30.09 in 10.0 mi Variable 3.5 mph - N/A   Partly Cloudy
12:54 PM 82.0 °F 86.7 °F 72.0 °F 71% 30.09 in 10.0 mi WSW 6.9 mph - N/A   Partly Cloudy
1:54 PM 84.0 °F 89.6 °F 72.0 °F 67% 30.09 in 10.0 mi SSW 8.1 mph - N/A   Partly Cloudy
2:54 PM 84.0 °F 89.0 °F 71.1 °F 65% 30.07 in 10.0 mi SSW 5.8 mph - N/A   Scattered Clouds
3:54 PM 82.9 °F 87.5 °F 71.1 °F 67% 30.07 in 10.0 mi South 6.9 mph - N/A   Scattered Clouds
4:54 PM 82.0 °F 85.5 °F 69.1 °F 65% 30.08 in 10.0 mi South 6.9 mph - N/A   Mostly Cloudy
5:54 PM 80.1 °F 83.2 °F 70.0 °F 71% 30.09 in 10.0 mi SSW 4.6 mph - 0.00 in   Partly Cloudy
6:54 PM 78.1 °F - 70.0 °F 76% 30.10 in 10.0 mi SSW 4.6 mph - 0.00 in Rain Light Rain
7:54 PM 78.1 °F - 70.0 °F 76% 30.10 in 10.0 mi SSW 3.5 mph - 0.00 in   Clear
8:54 PM 77.0 °F - 71.1 °F 82% 30.12 in 10.0 mi SSW 4.6 mph - N/A   Clear
9:54 PM 77.0 °F - 71.1 °F 82% 30.13 in 10.0 mi South 6.9 mph - N/A   Clear
10:54 PM 75.9 °F - 71.1 °F 85% 30.14 in 10.0 mi SSW 5.8 mph - N/A   Clear
11:54 PM 75.0 °F - 71.1 °F 87% 30.14 in 10.0 mi SSW 5.8 mph - N/A   Clear